This is the latest recevied weather packets stored in our database for station/object K1JO. If no packets are shown the sender has not sent any weather packets the latest 10 day(s).
| Time | Temp. | Humidity | Pressure | Rain* | Wind** | Luminosity | Snow |
|---|---|---|---|---|---|---|---|
| 1778159431 | 11.67° C | 77% | 1001.6 hPa | 0 mm | - | 251 W/m² | - |
| 1778159127 | 11.67° C | 82% | 1001.5 hPa | 0 mm | - | 532 W/m² | - |
| 1778158524 | 11.67° C | 79% | 1001.6 hPa | 0 mm | - | 503 W/m² | - |
| 1778157615 | 11.67° C | 80% | 1001.7 hPa | 0 mm | - | 463 W/m² | - |
| 1778157313 | 10.56° C | 82% | 1001.5 hPa | 0 mm | - | 445 W/m² | - |
| 1778157009 | 10.56° C | 82% | 1001.7 hPa | 0 mm | - | 438 W/m² | - |
| 1778156704 | 10.56° C | 82% | 1001.9 hPa | 0 mm | - | 131 W/m² | - |
| 1778156401 | 10.56° C | 82% | 1001.9 hPa | 0 mm | - | 399 W/m² | - |
| 1778156096 | 10.56° C | 83% | 1001.8 hPa | 0 mm | - | 382 W/m² | - |
| 1778155793 | 10° C | 88% | 1001.8 hPa | 0 mm | - | 367 W/m² | - |
| 1778155489 | 10° C | 83% | 1002 hPa | 0 mm | - | 354 W/m² | - |
| 1778155186 | 10.56° C | 85% | 1002.1 hPa | 0 mm | - | 337 W/m² | - |
| 1778153972 | 10.56° C | 87% | 1002.4 hPa | 0 mm | - | 271 W/m² | - |
| 1778153669 | 9.44° C | 88% | 1002.2 hPa | 0 mm | - | 213 W/m² | - |
| 1778153366 | 9.44° C | 89% | 1001.9 hPa | 0 mm | - | 132 W/m² | - |
| 1778153064 | 8.89° C | 91% | 1002.2 hPa | 0 mm | - | 160 W/m² | - |
| 1778152761 | 8.89° C | 94% | 1002.2 hPa | 0 mm | - | 187 W/m² | - |
| 1778152458 | 8.89° C | 94% | 1001.8 hPa | 0 mm | - | 96 W/m² | - |
| 1778152154 | 8.33° C | 94% | 1001.9 hPa | 0 mm | - | 102 W/m² | - |
| 1778151850 | 8.33° C | 95% | 1001.7 hPa | 0 mm | - | 64 W/m² | - |
| 1778151547 | 8.33° C | 96% | 1001.6 hPa | 0 mm | - | 111 W/m² | - |
| 1778151243 | 8.33° C | 96% | 1001.8 hPa | 0 mm | - | 61 W/m² | - |
| 1778150637 | 7.78° C | 96% | 1001.4 hPa | 0 mm | - | 81 W/m² | - |
| 1778150333 | 8.33° C | 98% | 1001.3 hPa | 0 mm | - | 62 W/m² | - |
| 1778150030 | 7.78° C | 98% | 1001.6 hPa | 0 mm | - | 43 W/m² | - |
* Rain latest hour (hover to see other rain measurements)
** Current wind speed in m/s (hover to see current wind gust speed)